Content
SEND FEEDBACK

Daily
Averages
Monthly
Summary
France

PORT-EN-BESSIN-HUPPAIN, FRANCE


Home > Europe > France
Elevation: 239 feet     Latitude: 49 21N     Longitude: 000 46W

WEATHER
 
SELECT A DAY
Number of Records: 215,980;   Date Range: 7/1/96 - 8/10/14
 
SHARE

PRINT THIS DATA

[ ← Previous Day ]
WEATHER ALMANAC - APRIL 18, 2013
[ Next Day → ]
[ °C ]   °F
Weather ElementAverageHighLow
Temperature52.1 °F59 °F (2:30 pm)44.6 °F (11:30 pm)
Dewpoint42 °F50 °F (12:30 am)37.4 °F (1:00 pm)
Humidity69.2 %87 % (4:30 am)36 % (2:00 pm)
Barometer30.11 in30.24 in (10:00 pm)29.98 in (12:30 am)
Wind Speed16.7 mph25.3 mph (1:00 pm)
Wind Gust29.9 mph (9:30 pm)
Weather ElementAverage
Visibility7.1 mi
Wind DirectionWSW (257.6 °)

Weather ElementTotal
Precipitation---
Heating Degree Days13.2 (Base 65)
Growing Degree Days1.8 (Base 50)
Averaged from 51 records on April 18, 2013
WEATHER CONDITIONS BREAKOUT
WIND DIRECTION BREAKOUT
WEATHER BY HOUR - APRIL 18, 2013
[ °C ]   °F
Local TimeTemperatureDewpointHumidityBarometerVisibilityWind DirectionWind SpeedGust SpeedPrecipitationEventsConditions
12:30 AM55.4 °F50.0 °F82 %29.98 in6.2 miWest (260°)9.2 mphOvercast
1:00 AM55.4 °F50.0 °F82 %29.98 in6.2 miWest (270°)11.5 mphMostly Cloudy
1:30 AM53.6 °F46.4 °F77 %29.98 in6.2 miWest (280°)15.0 mphMostly Cloudy
2:00 AM52.0 °F46.0 °F72 %30.01 in10.0 miWest (280°)11.5 mphClear
2:00 AM51.8 °F46.4 °F82 %30.01 in6.2 miWest (280°)11.5 mphMostly Cloudy
2:30 AM51.8 °F44.6 °F76 %30.01 in6.2 miWest (270°)11.5 mphMostly Cloudy
3:00 AM50.0 °F44.6 °F82 %30.01 in6.2 miWest (260°)12.7 mphScattered Clouds
3:30 AM50.0 °F44.6 °F82 %30.01 in6.2 miWest (260°)11.5 mph
4:00 AM50.0 °F44.6 °F82 %30.04 in6.2 miWSW (250°)11.5 mph
4:30 AM48.2 °F44.6 °F87 %30.04 in6.2 miWSW (240°)11.5 mph
5:00 AM48.2 °F42.8 °F82 %30.04 in6.2 miWSW (250°)11.5 mph
5:30 AM48.2 °F42.8 °F82 %30.04 in6.2 miWSW (240°)10.4 mph
6:00 AM46.4 °F42.8 °F87 %30.04 in6.2 miSW (230°)9.2 mphPartly Cloudy
6:30 AM46.4 °F42.8 °F87 %30.04 in6.2 miSW (230°)9.2 mph
7:00 AM46.4 °F42.8 °F87 %30.06 in6.2 miSW (230°)10.4 mph
7:30 AM46.4 °F42.8 °F87 %30.06 in6.2 miSW (220°)10.4 mph
8:00 AM48.0 °F42.0 °F73 %30.09 in12.0 miSW (230°)12.7 mph
8:00 AM48.2 °F42.8 °F82 %30.06 in6.2 miSW (230°)11.5 mph
8:30 AM50.0 °F42.8 °F76 %30.09 in6.2 miWSW (240°)13.8 mph
9:00 AM50.0 °F42.8 °F76 %30.09 in6.2 miWSW (250°)15.0 mphPartly Cloudy
9:30 AM51.8 °F42.8 °F71 %30.09 in6.2 miWSW (240°)19.6 mphMostly Cloudy
10:00 AM53.6 °F42.8 °F67 %30.09 in6.2 miWest (260°)24.2 mphMostly Cloudy
10:30 AM53.6 °F41.0 °F62 %30.12 in6.2 miWest (260°)21.9 mphMostly Cloudy
11:00 AM55.4 °F41.0 °F58 %30.12 in6.2 miWest (260°)23.0 mphMostly Cloudy
11:30 AM53.6 °F41.0 °F62 %30.12 in6.2 miWest (260°)23.0 mphMostly Cloudy
12:00 PM53.6 °F39.2 °F58 %30.15 in6.2 miWest (260°)21.9 mphOvercast
12:30 PM53.6 °F39.2 °F58 %30.15 in6.2 miWest (260°)21.9 mphMostly Cloudy
1:00 PM55.4 °F37.4 °F51 %30.12 in6.2 miWest (260°)25.3 mphMostly Cloudy
1:30 PM57.2 °F41.0 °F55 %30.12 in6.2 miWSW (250°)23.0 mphScattered Clouds
2:00 PM58.0 °F38.0 °F36 %30.16 in25.0 miWSW (250°)23.0 mphMostly Cloudy
2:00 PM57.2 °F39.2 °F51 %30.12 in6.2 miWSW (250°)23.0 mphMostly Cloudy
2:30 PM59.0 °F39.2 °F48 %30.12 in6.2 miWest (260°)19.6 mph
3:00 PM57.2 °F39.2 °F51 %30.15 in6.2 miWest (260°)21.9 mphMostly Cloudy
3:30 PM57.2 °F41.0 °F55 %30.12 in6.2 miWSW (240°)21.9 mphMostly Cloudy
4:00 PM59.0 °F41.0 °F51 %30.12 in6.2 miWSW (250°)23.0 mphMostly Cloudy
4:30 PM59.0 °F39.2 °F48 %30.12 in6.2 miWSW (250°)20.7 mph
5:00 PM57.2 °F39.2 °F51 %30.12 in6.2 miWSW (250°)24.2 mph
5:30 PM57.2 °F42.8 °F59 %30.15 in6.2 miWest (280°)25.3 mphScattered Clouds
6:00 PM55.4 °F41.0 °F58 %30.15 in6.2 miWest (270°)25.3 mphMostly Cloudy
6:30 PM55.4 °F39.2 °F54 %30.15 in6.2 miWest (280°)25.3 mphPartly Cloudy
7:00 PM53.6 °F41.0 °F62 %30.15 in6.2 miWest (270°)19.6 mph
7:30 PM51.8 °F41.0 °F67 %30.18 in6.2 miWest (280°)19.6 mphScattered Clouds
8:00 PM52.0 °F41.0 °F55 %30.21 in22.0 miWest (280°)13.8 mphClear
8:00 PM51.8 °F41.0 °F67 %30.18 in6.2 miWest (280°)13.8 mphMostly Cloudy
8:30 PM50.0 °F41.0 °F71 %30.18 in6.2 miWest (270°)13.8 mphPartly Cloudy
9:00 PM48.2 °F41.0 °F76 %30.21 in6.2 miWest (270°)16.1 mph
9:30 PM48.2 °F41.0 °F76 %30.21 in6.2 miWest (270°)17.3 mph29.9 mphPartly Cloudy
10:00 PM46.4 °F41.0 °F81 %30.24 in6.2 miWest (270°)15.0 mphPartly Cloudy
10:30 PM46.4 °F41.0 °F81 %30.24 in6.2 miWest (270°)11.5 mph
11:00 PM46.4 °F41.0 °F81 %30.24 in6.2 miWest (270°)11.5 mph
11:30 PM44.6 °F41.0 °F87 %30.24 in6.2 miWest (260°)11.5 mph
Hourly data recorded from LFRK, located miles away from Port-en-Bessin-Huppain, France







STORIES FROM OUR PARTNERS